Hourly Data Report for October 03, 2014

All times are specified in Local Standard Time (LST). Add 1 hour to adjust for Daylight Saving Time where and when it is observed.

MONCTON INTL A
NEW BRUNSWICK

46°06'44.000" N
64°40'43.000" W
70.70 m
8103201
71705
YQM

Download Data

Hourly Data (October 2014)
Hourly Data Report for October 3, 2014
Temp Definition
°C
Dew Point Temp Definition
°C
Rel Hum Definition
%
Wind Dir Definition
10's deg

Wind Spd Definition
km/h
Visibility Definition
km
Stn Press Definition
kPa
Hmdx Definition


Wind Chill Definition


Weather Definition


TIME
00:00 Legend Double Dagger 8.6 7.4 92 7 17 24.1 101.41     LegendNANA
01:00 Legend Double Dagger 7.8 6.4 91 5 13 24.1 101.41     LegendNANA
02:00 Legend Double Dagger 6.4 5.5 94 4 10 24.1 101.35     Clear
03:00 Legend Double Dagger 6.2 5.5 95 4 11 24.1 101.37     LegendNANA
04:00 Legend Double Dagger 4.7 4.1 96 4 13 24.1 101.36     LegendNANA
05:00 Legend Double Dagger 3.3 2.6 95 2 11 24.1 101.36     Clear
06:00 Legend Double Dagger 4.0 3.4 96 6 13 24.1 101.31     LegendNANA
07:00 Legend Double Dagger 4.5 3.9 96 5 10 24.1 101.25     LegendNANA
08:00 Legend Double Dagger 9.4 8.0 91 3 10 24.1 101.32     Mainly Clear
09:00 Legend Double Dagger 12.2 8.1 76 6 17 24.1 101.37     LegendNANA
10:00 Legend Double Dagger 13.6 7.4 66 6 18 24.1 101.34     LegendNANA
11:00 Legend Double Dagger 14.8 7.4 61 3 18 24.1 101.27     Mainly Clear
12:00 Legend Double Dagger 14.9 7.5 61 3 17 24.1 101.23     LegendNANA
13:00 Legend Double Dagger 15.5 8.8 64 3 16 24.1 101.14     LegendNANA
14:00 Legend Double Dagger 15.9 8.9 63 5 18 24.1 101.08     Mainly Clear
15:00 Legend Double Dagger 15.4 8.5 63 3 23 24.1 101.03     LegendNANA
16:00 Legend Double Dagger 14.8 8.6 66 4 21 24.1 100.98     LegendNANA
17:00 Legend Double Dagger 13.6 7.0 64 5 14 24.1 100.95     Mainly Clear
18:00 Legend Double Dagger 10.1 7.0 81 5 12 24.1 100.94     LegendNANA
19:00 Legend Double Dagger 8.9 6.7 86 6 11 24.1 100.92     LegendNANA
20:00 Legend Double Dagger 9.0 7.3 89 4 13 24.1 100.88     Clear
21:00 Legend Double Dagger 8.4 7.7 95 7 6 24.1 100.85     LegendNANA
22:00 Legend Double Dagger 8.4 7.7 95 6 6 24.1 100.81     LegendNANA
23:00 Legend Double Dagger 7.5 6.9 96 6 6 24.1 100.77     Cloudy

Notes on Data Quality.

Legend

  • E = Estimated
  • M = Missing
  • NA = Not Available
  • ‡ = Partner data that is not subject to review by the National Climate Archives
Date modified: